CES722 VHHH-ZSSS

Flight info

Callsign CES722
Flight time 1h 45m
Altitude 33000
Route LEKEN V601 DOTMI/K0933S1005 A470 LJG B221 SHZ G204 AND AND62A
Aircraft A359/H-SDE2E3GHIJ3J4J5LM1ORWXY/LB1D1

Departure

Time 2026-05-05 11:23
Airport Hong Kong International Airport (VHHH)

Arrival

Time 2026-05-05 13:08
Airport Shanghai Hongqiao International Airport (ZSSS)
Time Latitude Longitude Altitude Speed Heading
2026-05-05 10:54 22.31606 113.93286 38 ft 0 kts 109°
2026-05-05 11:00 22.31608 113.93278 38 ft 4 kts 105°
2026-05-05 11:00 22.31612 113.93250 38 ft 3 kts 107°
2026-05-05 11:01 22.31620 113.93228 36 ft 4 kts 121°
2026-05-05 11:01 22.31637 113.93206 36 ft 4 kts 148°
2026-05-05 11:01 22.31661 113.93195 36 ft 4 kts 163°
2026-05-05 11:01 22.31683 113.93187 37 ft 4 kts 161°
2026-05-05 11:02 22.31701 113.93181 37 ft 0 kts 161°
2026-05-05 11:05 22.31696 113.93182 37 ft 2 kts 160°
2026-05-05 11:05 22.31674 113.93191 36 ft 6 kts 161°
2026-05-05 11:05 22.31635 113.93192 36 ft 5 kts 198°
2026-05-05 11:05 22.31609 113.93160 38 ft 7 kts 237°
2026-05-05 11:06 22.31585 113.93099 38 ft 10 kts 251°
2026-05-05 11:06 22.31562 113.93026 38 ft 8 kts 251°
2026-05-05 11:06 22.31540 113.92958 38 ft 11 kts 251°
2026-05-05 11:06 22.31511 113.92867 38 ft 14 kts 251°
2026-05-05 11:07 22.31492 113.92755 38 ft 9 kts 279°
2026-05-05 11:07 22.31493 113.92751 38 ft 0 kts 282°
2026-05-05 11:07 22.31499 113.92738 38 ft 6 kts 296°
2026-05-05 11:07 22.31523 113.92688 38 ft 9 kts 296°
2026-05-05 11:08 22.31556 113.92615 38 ft 12 kts 296°
2026-05-05 11:08 22.31583 113.92555 38 ft 7 kts 296°
2026-05-05 11:08 22.31613 113.92488 38 ft 9 kts 296°
2026-05-05 11:08 22.31635 113.92441 38 ft 0 kts 296°
2026-05-05 11:09 22.31635 113.92440 38 ft 0 kts 296°
2026-05-05 11:09 22.31643 113.92424 38 ft 5 kts 296°
2026-05-05 11:10 22.31642 113.92374 38 ft 8 kts 256°
2026-05-05 11:10 22.31622 113.92304 38 ft 11 kts 251°
2026-05-05 11:10 22.31592 113.92212 38 ft 14 kts 251°
2026-05-05 11:10 22.31557 113.92102 38 ft 16 kts 251°
2026-05-05 11:11 22.31524 113.91998 38 ft 13 kts 251°
2026-05-05 11:11 22.31494 113.91912 38 ft 12 kts 242°
2026-05-05 11:11 22.31425 113.91892 38 ft 12 kts 158°
2026-05-05 11:11 22.31338 113.91928 38 ft 15 kts 161°
2026-05-05 11:12 22.31233 113.91967 38 ft 17 kts 160°
2026-05-05 11:12 22.31113 113.92012 38 ft 19 kts 161°
2026-05-05 11:12 22.30979 113.92063 38 ft 21 kts 160°
2026-05-05 11:12 22.30841 113.92114 38 ft 16 kts 161°
2026-05-05 11:13 22.30767 113.92086 38 ft 12 kts 243°
2026-05-05 11:13 22.30794 113.92012 37 ft 11 kts 345°
2026-05-05 11:13 22.30880 113.92004 38 ft 14 kts 346°
2026-05-05 11:13 22.30961 113.91977 38 ft 13 kts 341°
2026-05-05 11:14 22.31027 113.91963 38 ft 9 kts 11°
2026-05-05 11:14 22.31052 113.92012 38 ft 8 kts 99°
2026-05-05 11:14 22.31029 113.92039 38 ft 8 kts 149°
2026-05-05 11:14 22.30966 113.92067 38 ft 11 kts 160°
2026-05-05 11:15 22.30885 113.92096 38 ft 14 kts 160°
2026-05-05 11:15 22.30751 113.92147 38 ft 17 kts 161°
2026-05-05 11:15 22.30669 113.92159 38 ft 11 kts 206°
2026-05-05 11:15 22.30634 113.92082 38 ft 13 kts 250°
2026-05-05 11:16 22.30613 113.92017 38 ft 15 kts 251°
2026-05-05 11:16 22.30576 113.91900 38 ft 18 kts 251°
2026-05-05 11:16 22.30532 113.91765 38 ft 20 kts 251°
2026-05-05 11:16 22.30483 113.91612 38 ft 23 kts 251°
2026-05-05 11:17 22.30427 113.91442 38 ft 25 kts 251°
2026-05-05 11:17 22.30350 113.91204 38 ft 25 kts 250°
2026-05-05 11:17 22.30291 113.91018 38 ft 27 kts 251°
2026-05-05 11:17 22.30247 113.90884 38 ft 29 kts 250°
2026-05-05 11:18 22.30184 113.90686 38 ft 28 kts 251°
2026-05-05 11:18 22.30133 113.90529 38 ft 21 kts 250°
2026-05-05 11:18 22.30083 113.90372 38 ft 23 kts 251°
2026-05-05 11:18 22.30026 113.90199 38 ft 26 kts 250°
2026-05-05 11:19 22.29966 113.90010 38 ft 28 kts 251°
2026-05-05 11:19 22.29903 113.89816 38 ft 7 kts 251°
2026-05-05 11:19 22.29891 113.89777 38 ft 9 kts 250°
2026-05-05 11:19 22.29839 113.89737 38 ft 10 kts 179°
2026-05-05 11:20 22.29776 113.89753 38 ft 0 kts 162°
2026-05-05 11:20 22.29758 113.89759 38 ft 0 kts 161°
2026-05-05 11:21 22.29758 113.89760 38 ft 1 kts 161°
2026-05-05 11:21 22.29736 113.89767 38 ft 6 kts 161°
2026-05-05 11:21 22.29681 113.89788 36 ft 10 kts 161°
2026-05-05 11:22 22.29634 113.89812 36 ft 7 kts 130°
2026-05-05 11:22 22.29639 113.89863 36 ft 8 kts 72°
2026-05-05 11:22 22.29666 113.89946 36 ft 28 kts 71°
2026-05-05 11:22 22.29824 113.90438 37 ft 115 kts 71°
2026-05-05 11:23 22.30191 113.91557 201 ft 190 kts 71°
2026-05-05 11:23 22.30650 113.92975 1189 ft 206 kts 71°
2026-05-05 11:23 22.31148 113.94534 2344 ft 230 kts 73°
2026-05-05 11:23 22.31677 113.96180 3755 ft 229 kts 73°
2026-05-05 11:24 22.32193 113.97785 4743 ft 228 kts 72°
2026-05-05 11:24 22.32731 113.99467 5249 ft 245 kts 72°
2026-05-05 11:24 22.33286 114.01202 5984 ft 250 kts 71°
2026-05-05 11:24 22.33751 114.03019 6785 ft 253 kts 82°
2026-05-05 11:25 22.33697 114.04910 7585 ft 254 kts 105°
2026-05-05 11:25 22.32980 114.06644 8408 ft 255 kts 128°
2026-05-05 11:25 22.31702 114.07950 9246 ft 254 kts 151°
2026-05-05 11:25 22.30071 114.08634 10065 ft 253 kts 173°
2026-05-05 11:26 22.28316 114.08764 10833 ft 254 kts 183°
2026-05-05 11:26 22.26537 114.08749 11607 ft 257 kts 185°
2026-05-05 11:26 22.24735 114.08726 12388 ft 261 kts 185°
2026-05-05 11:26 22.22892 114.08706 12905 ft 278 kts 185°
2026-05-05 11:27 22.20873 114.08667 13229 ft 302 kts 185°
2026-05-05 11:27 22.18694 114.08743 13509 ft 328 kts 176°
2026-05-05 11:27 22.16455 114.09586 13740 ft 358 kts 152°
2026-05-05 11:27 22.14570 114.11466 13978 ft 385 kts 128°
2026-05-05 11:28 22.13232 114.14043 14300 ft 401 kts 117°
2026-05-05 11:28 22.12023 114.16787 14789 ft 408 kts 117°
2026-05-05 11:28 22.10783 114.19555 15326 ft 413 kts 118°
2026-05-05 11:28 22.09499 114.22347 15865 ft 418 kts 119°
2026-05-05 11:29 22.08125 114.25075 16369 ft 420 kts 126°
2026-05-05 11:29 22.06177 114.27395 16898 ft 417 kts 144°
2026-05-05 11:29 22.03873 114.29302 17434 ft 419 kts 148°
2026-05-05 11:29 22.01495 114.31157 17968 ft 424 kts 148°
2026-05-05 11:30 21.99094 114.33027 18460 ft 428 kts 148°
2026-05-05 11:30 21.96675 114.34920 18947 ft 431 kts 148°
2026-05-05 11:30 21.94244 114.36833 19431 ft 434 kts 148°
2026-05-05 11:30 21.91797 114.38757 19953 ft 437 kts 148°
2026-05-05 11:31 21.89424 114.40754 20463 ft 442 kts 142°
2026-05-05 11:31 21.87337 114.43224 20964 ft 452 kts 129°
2026-05-05 11:31 21.85796 114.46203 21446 ft 461 kts 114°
2026-05-05 11:31 21.84939 114.49545 21920 ft 468 kts 99°
2026-05-05 11:32 21.84843 114.53057 22402 ft 472 kts 84°
2026-05-05 11:32 21.85431 114.56542 22873 ft 475 kts 77°
2026-05-05 11:32 21.85944 114.60071 23331 ft 479 kts 83°
2026-05-05 11:32 21.86270 114.63655 23764 ft 482 kts 85°
2026-05-05 11:33 21.86557 114.67266 24132 ft 486 kts 85°
2026-05-05 11:33 21.86833 114.70857 24511 ft 490 kts 85°
2026-05-05 11:33 21.87112 114.74532 24920 ft 494 kts 85°
2026-05-05 11:33 21.87391 114.78229 25358 ft 498 kts 85°
2026-05-05 11:34 21.87672 114.81957 25818 ft 502 kts 84°
2026-05-05 11:34 21.87953 114.85713 26264 ft 505 kts 84°
2026-05-05 11:34 21.88236 114.89502 26718 ft 510 kts 84°
2026-05-05 11:34 21.88513 114.93320 27176 ft 514 kts 85°
2026-05-05 11:35 21.88698 114.97175 27612 ft 518 kts 87°
2026-05-05 11:35 21.88808 115.01014 28049 ft 522 kts 88°
2026-05-05 11:35 21.88894 115.04934 28518 ft 525 kts 88°
2026-05-05 11:35 21.88979 115.08877 28961 ft 529 kts 88°
2026-05-05 11:36 21.89075 115.12852 29384 ft 533 kts 87°
2026-05-05 11:36 21.89184 115.16857 29788 ft 537 kts 87°
2026-05-05 11:36 21.89301 115.20888 30188 ft 540 kts 86°
2026-05-05 11:36 21.89423 115.24942 30541 ft 543 kts 86°
2026-05-05 11:37 21.89550 115.29019 30892 ft 546 kts 86°
2026-05-05 11:37 21.89675 115.33059 31233 ft 549 kts 87°
2026-05-05 11:37 21.89800 115.37171 31585 ft 551 kts 87°
2026-05-05 11:37 21.89922 115.41303 31919 ft 553 kts 87°
2026-05-05 11:38 21.90043 115.45455 32237 ft 556 kts 87°
2026-05-05 11:38 21.90164 115.49626 32538 ft 558 kts 87°
2026-05-05 11:38 21.90284 115.53810 32838 ft 561 kts 87°
2026-05-05 11:38 21.90404 115.58014 32983 ft 561 kts 87°
2026-05-05 11:39 21.90670 115.62180 32994 ft 556 kts 80°
2026-05-05 11:39 21.92081 115.70268 32991 ft 552 kts 76°
2026-05-05 11:40 21.93716 115.78364 32994 ft 554 kts 75°
2026-05-05 11:40 21.95390 115.86479 32996 ft 556 kts 75°
2026-05-05 11:41 21.97046 115.94610 33001 ft 556 kts 76°
2026-05-05 11:41 21.98675 116.02690 33001 ft 556 kts 76°
2026-05-05 11:42 22.00839 116.10642 33002 ft 550 kts 62°
2026-05-05 11:42 22.02697 116.14212 32999 ft 544 kts 51°
2026-05-05 11:42 22.05089 116.17326 32999 ft 536 kts 40°
2026-05-05 11:42 22.07928 116.19873 32999 ft 527 kts 28°
2026-05-05 11:43 22.11089 116.21782 33001 ft 517 kts 17°
2026-05-05 11:43 22.14452 116.23027 33017 ft 506 kts
2026-05-05 11:43 22.17847 116.23605 33004 ft 496 kts 356°
2026-05-05 11:43 22.21254 116.23557 33004 ft 485 kts 347°
2026-05-05 11:44 22.24539 116.22913 33002 ft 476 kts 338°
2026-05-05 11:44 22.30566 116.20233 33010 ft 469 kts 330°
2026-05-05 11:45 22.36892 116.18232 33009 ft 483 kts 345°
2026-05-05 11:45 22.43596 116.17679 33048 ft 489 kts 351°
2026-05-05 11:46 22.50391 116.17460 33015 ft 488 kts 352°
2026-05-05 11:46 22.57171 116.17290 33015 ft 487 kts 351°
2026-05-05 11:47 22.63945 116.17098 33016 ft 488 kts 352°
2026-05-05 11:47 22.70774 116.17987 33018 ft 505 kts
2026-05-05 11:47 22.74057 116.19296 33035 ft 516 kts 18°
2026-05-05 11:48 22.80166 116.23560 33017 ft 527 kts 30°
2026-05-05 11:48 22.85995 116.28414 33021 ft 530 kts 32°
2026-05-05 11:49 22.91804 116.33340 33020 ft 530 kts 32°
2026-05-05 11:49 22.97602 116.38204 33023 ft 530 kts 31°
2026-05-05 11:50 23.03467 116.43052 33025 ft 530 kts 31°
2026-05-05 11:50 23.09336 116.47892 33029 ft 529 kts 31°
2026-05-05 11:51 23.15198 116.52731 33031 ft 529 kts 31°
2026-05-05 11:51 23.21016 116.57553 33026 ft 530 kts 31°
2026-05-05 11:52 23.26878 116.62418 33129 ft 530 kts 31°
2026-05-05 11:52 23.32744 116.67289 33130 ft 531 kts 31°
2026-05-05 11:53 23.38611 116.72168 33130 ft 531 kts 31°
2026-05-05 11:53 23.44325 116.77190 33133 ft 536 kts 39°
2026-05-05 11:54 23.49613 116.82950 33143 ft 538 kts 40°
2026-05-05 11:54 23.54797 116.88837 33135 ft 538 kts 41°
2026-05-05 11:55 23.59972 116.94753 33137 ft 539 kts 41°
2026-05-05 11:55 23.65121 117.00627 33140 ft 539 kts 41°
2026-05-05 11:56 23.70311 117.06540 33139 ft 539 kts 41°
2026-05-05 11:56 23.75500 117.12455 33144 ft 540 kts 41°
2026-05-05 11:57 23.80831 117.18191 33126 ft 536 kts 37°
2026-05-05 11:57 23.86454 117.23532 33143 ft 536 kts 36°
2026-05-05 11:58 23.92059 117.28835 33137 ft 537 kts 36°
2026-05-05 11:58 23.97655 117.34248 33145 ft 537 kts 37°
2026-05-05 11:59 24.03219 117.39696 33137 ft 537 kts 37°
2026-05-05 11:59 24.08784 117.45158 33128 ft 537 kts 37°
2026-05-05 12:00 24.14230 117.50692 33134 ft 541 kts 42°
2026-05-05 12:00 24.19378 117.56718 33159 ft 542 kts 43°
2026-05-05 12:01 24.24459 117.62829 33131 ft 542 kts 43°
2026-05-05 12:01 24.29534 117.68952 33127 ft 542 kts 43°
2026-05-05 12:02 24.34577 117.75027 33124 ft 543 kts 43°
2026-05-05 12:02 24.39660 117.81152 33128 ft 543 kts 43°
2026-05-05 12:03 24.44738 117.87275 33120 ft 543 kts 43°
2026-05-05 12:03 24.49822 117.93409 33121 ft 543 kts 43°
2026-05-05 12:04 24.54904 117.99552 33121 ft 543 kts 43°
2026-05-05 12:04 24.59991 118.05604 33123 ft 542 kts 41°
2026-05-05 12:05 24.65254 118.11529 33147 ft 542 kts 40°
2026-05-05 12:05 24.70543 118.17459 33131 ft 544 kts 40°
2026-05-05 12:06 24.75818 118.23439 33139 ft 545 kts 41°
2026-05-05 12:06 24.81040 118.29396 33139 ft 545 kts 41°
2026-05-05 12:07 24.86291 118.35407 33147 ft 545 kts 41°
2026-05-05 12:07 24.91554 118.41425 33147 ft 547 kts 41°
2026-05-05 12:08 24.96837 118.47470 33148 ft 548 kts 41°
2026-05-05 12:08 25.02078 118.53480 33157 ft 548 kts 41°
2026-05-05 12:09 25.07353 118.59544 33158 ft 547 kts 41°
2026-05-05 12:09 25.12600 118.65646 33098 ft 550 kts 43°
2026-05-05 12:10 25.17761 118.71922 33167 ft 553 kts 43°
2026-05-05 12:10 25.22886 118.78166 33174 ft 552 kts 43°
2026-05-05 12:11 25.28062 118.84436 33178 ft 552 kts 43°
2026-05-05 12:11 25.33241 118.90700 33169 ft 552 kts 43°
2026-05-05 12:12 25.38451 118.96922 33157 ft 551 kts 42°
2026-05-05 12:12 25.43705 119.03015 33172 ft 551 kts 41°
2026-05-05 12:13 25.48992 119.09144 33179 ft 551 kts 42°
2026-05-05 12:13 25.54264 119.15298 33195 ft 551 kts 42°
2026-05-05 12:14 25.59545 119.21485 33172 ft 554 kts 42°
2026-05-05 12:14 25.64798 119.27648 33175 ft 553 kts 42°
2026-05-05 12:15 25.70078 119.33836 33183 ft 551 kts 40°
2026-05-05 12:15 25.76226 119.38830 33187 ft 550 kts 20°
2026-05-05 12:16 25.83394 119.41789 33179 ft 551 kts 11°
2026-05-05 12:16 25.90672 119.44256 33181 ft 550 kts
2026-05-05 12:17 25.98002 119.46679 33177 ft 550 kts
2026-05-05 12:17 26.05350 119.49145 33184 ft 553 kts
2026-05-05 12:18 26.12722 119.51653 33191 ft 554 kts 10°
2026-05-05 12:18 26.20033 119.54235 33168 ft 559 kts 14°
2026-05-05 12:19 26.27014 119.58288 33203 ft 571 kts 25°
2026-05-05 12:19 26.33796 119.62960 33203 ft 574 kts 27°
2026-05-05 12:20 26.40494 119.67709 33197 ft 575 kts 27°
2026-05-05 12:20 26.47242 119.72489 33252 ft 575 kts 27°
2026-05-05 12:21 26.54012 119.77265 33197 ft 577 kts 27°
2026-05-05 12:21 26.60810 119.82029 33205 ft 577 kts 26°
2026-05-05 12:22 26.67569 119.86773 33206 ft 578 kts 27°
2026-05-05 12:22 26.74384 119.91566 33207 ft 579 kts 27°
2026-05-05 12:23 26.81204 119.96381 33204 ft 580 kts 27°
2026-05-05 12:23 26.88035 120.01209 33215 ft 581 kts 27°
2026-05-05 12:24 26.94826 120.06022 33227 ft 581 kts 27°
2026-05-05 12:24 27.01667 120.10878 33211 ft 583 kts 27°
2026-05-05 12:25 27.08518 120.15760 33209 ft 584 kts 27°
2026-05-05 12:25 27.15376 120.20638 33252 ft 583 kts 27°
2026-05-05 12:26 27.22193 120.25448 33217 ft 583 kts 27°
2026-05-05 12:26 27.29081 120.30294 33212 ft 584 kts 27°
2026-05-05 12:27 27.35967 120.35159 33210 ft 584 kts 27°
2026-05-05 12:27 27.42840 120.40036 33179 ft 584 kts 27°
2026-05-05 12:28 27.49727 120.44937 33222 ft 586 kts 27°
2026-05-05 12:28 27.56578 120.49822 33194 ft 587 kts 27°
2026-05-05 12:29 27.63477 120.54746 33209 ft 587 kts 27°
2026-05-05 12:29 27.70818 120.59932 33199 ft 584 kts 24°
2026-05-05 12:30 27.78283 120.63062 33202 ft 564 kts
2026-05-05 12:30 27.85997 120.64135 33205 ft 557 kts 358°
2026-05-05 12:31 27.93668 120.64827 33202 ft 543 kts 356°
2026-05-05 12:31 28.01102 120.65464 33204 ft 532 kts 356°
2026-05-05 12:32 28.08424 120.66131 33228 ft 532 kts 357°
2026-05-05 12:32 28.15792 120.66847 33197 ft 531 kts 357°
2026-05-05 12:33 28.23162 120.67575 33198 ft 531 kts 357°
2026-05-05 12:33 28.30528 120.68308 33185 ft 531 kts 357°
2026-05-05 12:34 28.37839 120.69031 33198 ft 530 kts 358°
2026-05-05 12:34 28.45192 120.69753 33188 ft 530 kts 358°
2026-05-05 12:35 28.52536 120.70491 33181 ft 530 kts 358°
2026-05-05 12:35 28.59879 120.71229 33195 ft 529 kts 358°
2026-05-05 12:36 28.67151 120.71961 33185 ft 528 kts 358°
2026-05-05 12:36 28.74465 120.72725 33170 ft 528 kts 358°
2026-05-05 12:37 28.81776 120.73533 33191 ft 528 kts 359°
2026-05-05 12:37 28.89064 120.74345 33171 ft 525 kts 359°
2026-05-05 12:38 28.96270 120.75092 33167 ft 523 kts 359°
2026-05-05 12:38 29.03516 120.75821 33160 ft 523 kts 359°
2026-05-05 12:39 29.10750 120.76559 33162 ft 521 kts 359°
2026-05-05 12:39 29.17953 120.77302 33154 ft 519 kts 359°
2026-05-05 12:40 29.25101 120.78039 33148 ft 519 kts 359°
2026-05-05 12:40 29.32295 120.78784 33152 ft 518 kts 359°
2026-05-05 12:41 29.39454 120.79529 33138 ft 515 kts 360°
2026-05-05 12:41 29.46585 120.80270 33131 ft 514 kts 359°
2026-05-05 12:42 29.50093 120.80635 33002 ft 509 kts 360°
2026-05-05 12:42 29.53616 120.81003 32743 ft 512 kts 360°
2026-05-05 12:42 29.57198 120.81447 32504 ft 523 kts
2026-05-05 12:42 29.60746 120.82492 32242 ft 531 kts 16°
2026-05-05 12:43 29.64145 120.84196 31993 ft 534 kts 21°
2026-05-05 12:43 29.67472 120.86101 31748 ft 534 kts 24°
2026-05-05 12:43 29.70757 120.88095 31488 ft 535 kts 25°
2026-05-05 12:43 29.74029 120.90135 31244 ft 534 kts 25°
2026-05-05 12:44 29.77279 120.92175 30573 ft 532 kts 25°
2026-05-05 12:44 29.80492 120.94184 29593 ft 532 kts 25°
2026-05-05 12:44 29.83739 120.96205 28742 ft 528 kts 25°
2026-05-05 12:44 29.86956 120.98198 28013 ft 522 kts 25°
2026-05-05 12:45 29.90136 121.00162 27308 ft 516 kts 25°
2026-05-05 12:45 29.93279 121.02099 26646 ft 509 kts 25°
2026-05-05 12:45 29.96380 121.04011 25995 ft 502 kts 25°
2026-05-05 12:45 29.99435 121.05901 25382 ft 495 kts 26°
2026-05-05 12:46 30.02404 121.07735 24788 ft 488 kts 26°
2026-05-05 12:46 30.05374 121.09571 24194 ft 481 kts 26°
2026-05-05 12:46 30.08301 121.11382 23601 ft 474 kts 26°
2026-05-05 12:46 30.11187 121.13170 22847 ft 468 kts 26°
2026-05-05 12:47 30.14038 121.14938 22103 ft 462 kts 26°
2026-05-05 12:47 30.16861 121.16689 21314 ft 458 kts 26°
2026-05-05 12:47 30.19648 121.18420 20644 ft 452 kts 26°
2026-05-05 12:47 30.22395 121.20127 20017 ft 445 kts 26°
2026-05-05 12:48 30.25159 121.21669 19372 ft 437 kts 19°
2026-05-05 12:48 30.28074 121.22486 18749 ft 428 kts
2026-05-05 12:48 30.30974 121.22902 18102 ft 423 kts
2026-05-05 12:48 30.33880 121.23262 17442 ft 417 kts
2026-05-05 12:49 30.36742 121.23618 16919 ft 412 kts
2026-05-05 12:49 30.39594 121.23977 16702 ft 414 kts
2026-05-05 12:49 30.42461 121.24343 16683 ft 414 kts
2026-05-05 12:49 30.45319 121.24714 16691 ft 413 kts
2026-05-05 12:50 30.48169 121.25095 16685 ft 412 kts
2026-05-05 12:50 30.51011 121.25492 16596 ft 407 kts
2026-05-05 12:50 30.53797 121.25885 15880 ft 402 kts
2026-05-05 12:50 30.56577 121.26271 14757 ft 399 kts
2026-05-05 12:51 30.59288 121.26649 13297 ft 397 kts
2026-05-05 12:51 30.61979 121.27028 12601 ft 383 kts
2026-05-05 12:51 30.64545 121.27386 12236 ft 358 kts
2026-05-05 12:51 30.66931 121.27722 11865 ft 333 kts
2026-05-05 12:52 30.69152 121.28034 11448 ft 312 kts
2026-05-05 12:52 30.71255 121.28330 11071 ft 294 kts
2026-05-05 12:52 30.73216 121.28610 10911 ft 274 kts
2026-05-05 12:52 30.75101 121.28873 10722 ft 277 kts
2026-05-05 12:53 30.76991 121.29132 10384 ft 276 kts
2026-05-05 12:53 30.78889 121.29396 10077 ft 274 kts
2026-05-05 12:53 30.80794 121.29662 9768 ft 281 kts
2026-05-05 12:53 30.82778 121.29941 9605 ft 292 kts
2026-05-05 12:54 30.86814 121.30510 8857 ft 291 kts
2026-05-05 12:54 30.88817 121.30792 8509 ft 289 kts
2026-05-05 12:54 30.90806 121.31073 8200 ft 288 kts
2026-05-05 12:55 30.92768 121.31351 7888 ft 288 kts
2026-05-05 12:55 30.94753 121.31634 7688 ft 287 kts
2026-05-05 12:55 30.96735 121.31919 7530 ft 287 kts
2026-05-05 12:55 30.98716 121.32204 7360 ft 287 kts
2026-05-05 12:56 31.00703 121.32490 7187 ft 287 kts
2026-05-05 12:56 31.02680 121.32774 7013 ft 286 kts
2026-05-05 12:56 31.04647 121.33058 6844 ft 284 kts
2026-05-05 12:56 31.06615 121.33341 6669 ft 285 kts
2026-05-05 12:57 31.08578 121.33623 6497 ft 283 kts
2026-05-05 12:57 31.10490 121.33837 6322 ft 283 kts
2026-05-05 12:57 31.12402 121.33383 6158 ft 282 kts 333°
2026-05-05 12:57 31.13879 121.32035 5985 ft 279 kts 311°
2026-05-05 12:58 31.15127 121.30306 5812 ft 278 kts 307°
2026-05-05 12:58 31.16338 121.28543 5635 ft 278 kts 307°
2026-05-05 12:58 31.17552 121.26783 5468 ft 279 kts 306°
2026-05-05 12:58 31.18772 121.25024 5295 ft 278 kts 308°
2026-05-05 12:59 31.20148 121.23446 5130 ft 280 kts 323°
2026-05-05 12:59 31.21936 121.22640 4959 ft 282 kts 351°
2026-05-05 12:59 31.23895 121.22454 4784 ft 283 kts 357°
2026-05-05 13:00 31.27828 121.22286 4430 ft 282 kts 357°
2026-05-05 13:00 31.29782 121.22194 4277 ft 278 kts 357°
2026-05-05 13:01 31.35208 121.21924 3854 ft 247 kts 359°
2026-05-05 13:01 31.36325 121.22072 3716 ft 242 kts 17°
2026-05-05 13:01 31.37680 121.23103 3545 ft 229 kts 55°
2026-05-05 13:01 31.38281 121.25265 3409 ft 202 kts 91°
2026-05-05 13:02 31.38303 121.26871 3250 ft 196 kts 94°
2026-05-05 13:02 31.38293 121.28465 3114 ft 196 kts 94°
2026-05-05 13:02 31.38279 121.30057 2986 ft 193 kts 95°
2026-05-05 13:02 31.38151 121.31080 2912 ft 191 kts 109°
2026-05-05 13:03 31.37435 121.32303 2793 ft 182 kts 144°
2026-05-05 13:03 31.36266 121.32792 2724 ft 179 kts 174°
2026-05-05 13:03 31.35031 121.32856 2654 ft 174 kts 180°
2026-05-05 13:03 31.33888 121.32869 2462 ft 156 kts 178°
2026-05-05 13:04 31.32851 121.32920 2268 ft 143 kts 176°
2026-05-05 13:04 31.31611 121.32991 2011 ft 127 kts 178°
2026-05-05 13:04 31.31033 121.33020 1900 ft 120 kts 178°
2026-05-05 13:04 31.30210 121.33063 1745 ft 118 kts 177°
2026-05-05 13:05 31.29400 121.33107 1592 ft 119 kts 177°
2026-05-05 13:05 31.28568 121.33149 1431 ft 121 kts 178°
2026-05-05 13:05 31.27739 121.33196 1263 ft 117 kts 178°
2026-05-05 13:05 31.26932 121.33241 1112 ft 116 kts 178°
2026-05-05 13:06 31.26129 121.33285 964 ft 116 kts 177°
2026-05-05 13:06 31.25318 121.33322 806 ft 118 kts 176°
2026-05-05 13:06 31.24484 121.33361 650 ft 121 kts 174°
2026-05-05 13:06 31.23649 121.33413 486 ft 120 kts 173°
2026-05-05 13:07 31.22804 121.33473 331 ft 128 kts 177°
2026-05-05 13:07 31.21895 121.33514 197 ft 130 kts 176°
2026-05-05 13:07 31.21007 121.33561 39 ft 125 kts 175°
2026-05-05 13:07 31.20244 121.33604 26 ft 92 kts 177°
2026-05-05 13:08 31.19740 121.33632 31 ft 53 kts 177°
2026-05-05 13:08 31.19499 121.33645 27 ft 23 kts 176°
2026-05-05 13:08 31.19346 121.33673 27 ft 21 kts 162°
2026-05-05 13:08 31.19222 121.33743 29 ft 17 kts 149°
2026-05-05 13:09 31.19116 121.33821 28 ft 17 kts 147°
2026-05-05 13:09 31.19079 121.33849 31 ft 3 kts 147°
2026-05-05 13:09 31.19055 121.33885 30 ft 7 kts 107°
2026-05-05 13:09 31.19055 121.33960 25 ft 10 kts 88°
2026-05-05 13:10 31.19101 121.34005 28 ft 11 kts
2026-05-05 13:10 31.19186 121.34001 28 ft 14 kts 357°
2026-05-05 13:10 31.19296 121.33994 28 ft 18 kts 357°
2026-05-05 13:10 31.19429 121.33987 28 ft 20 kts 357°
2026-05-05 13:11 31.19546 121.33980 28 ft 16 kts 358°
2026-05-05 13:11 31.19653 121.33975 28 ft 16 kts 357°
2026-05-05 13:11 31.19770 121.33969 28 ft 17 kts 358°
2026-05-05 13:11 31.19888 121.33964 28 ft 13 kts 359°
2026-05-05 13:12 31.19918 121.34004 29 ft 5 kts 99°
2026-05-05 13:12 31.19908 121.34058 29 ft 8 kts 95°
2026-05-05 13:12 31.19909 121.34137 29 ft 8 kts 88°
2026-05-05 13:12 31.19901 121.34178 29 ft 4 kts 126°
2026-05-05 13:13 31.19870 121.34190 29 ft 6 kts 172°
2026-05-05 13:13 31.19852 121.34192 30 ft 0 kts 175°
2026-05-05 13:13 31.19850 121.34192 30 ft 0 kts 175°
2026-05-05 13:13 31.19844 121.34193 28 ft 2 kts 175°
2026-05-05 13:14 31.19831 121.34194 28 ft 0 kts 176°